This is the latest recevied weather packets stored in our database for station/object WA0LM. If no packets are shown the sender has not sent any weather packets the latest 10 day(s).
| Time | Temp. | Humidity | Pressure | Rain* | Wind** | Luminosity | Snow |
|---|---|---|---|---|---|---|---|
| 1777796372 | 6.11° C | 78% | 1003.5 hPa | 0 mm | - | 0 W/m² | - |
| 1777796068 | 6.11° C | 78% | 1003.8 hPa | 0 mm | - | 0 W/m² | - |
| 1777795765 | 6.67° C | 77% | 1003.6 hPa | 0 mm | - | 0 W/m² | - |
| 1777795462 | 6.67° C | 77% | 1003.7 hPa | 0 mm | - | 0 W/m² | - |
| 1777795158 | 6.67° C | 76% | 1003.7 hPa | 0 mm | - | 0 W/m² | - |
| 1777794854 | 6.67° C | 75% | 1003.7 hPa | 0 mm | - | 0 W/m² | - |
| 1777794551 | 6.67° C | 75% | 1003.8 hPa | 0 mm | - | 0 W/m² | - |
| 1777794246 | 6.67° C | 75% | 1003.8 hPa | 0 mm | - | 0 W/m² | - |
| 1777793943 | 7.22° C | 74% | 1003.8 hPa | 0 mm | - | 0 W/m² | - |
| 1777793640 | 7.22° C | 74% | 1003.7 hPa | 0 mm | - | 0 W/m² | - |
| 1777793338 | 7.22° C | 74% | 1003.7 hPa | 0 mm | - | 0 W/m² | - |
| 1777793035 | 7.78° C | 74% | 1003.6 hPa | 0 mm | - | 0 W/m² | - |
| 1777792731 | 7.78° C | 78% | 1003.7 hPa | 0 mm | - | 0 W/m² | - |
| 1777792429 | 7.78° C | 73% | 1003.5 hPa | 0 mm | - | 0 W/m² | - |
| 1777792125 | 7.78° C | 73% | 1003.4 hPa | 0 mm | - | 0 W/m² | - |
| 1777791818 | 7.78° C | 72% | 1003.4 hPa | 0 mm | - | 0 W/m² | - |
| 1777791516 | 7.78° C | 72% | 1003.4 hPa | 0 mm | - | 0 W/m² | - |
| 1777791212 | 7.78° C | 71% | 1003.7 hPa | 0 mm | - | 0 W/m² | - |
| 1777790909 | 8.33° C | 69% | 1003.7 hPa | 0 mm | - | 0 W/m² | - |
| 1777790607 | 8.33° C | 69% | 1003.7 hPa | 0 mm | - | 0 W/m² | - |
| 1777790303 | 8.89° C | 67% | 1003.7 hPa | 0 mm | - | 0 W/m² | - |
| 1777790002 | 8.89° C | 67% | 1003.6 hPa | 0 mm | - | 0 W/m² | - |
| 1777789700 | 8.89° C | 67% | 1003.8 hPa | 0 mm | - | 0 W/m² | - |
| 1777789398 | 8.89° C | 68% | 1003.9 hPa | 0 mm | - | 0 W/m² | - |
| 1777789095 | 8.89° C | 65% | 1003.8 hPa | 0 mm | - | 0 W/m² | - |
* Rain latest hour (hover to see other rain measurements)
** Current wind speed in m/s (hover to see current wind gust speed)